Home   Weather   Bowling Green   Past weeks

Flag for USA Past Weather in Bowling Green, Kentucky, USA — Yesterday and Last 2 Weeks

Now
54 °F

Passing clouds.


Feels Like: 53 °F
Forecast: 52 / 65 °F
Wind: 5 mph from West

Location: Outlaw Field

Current Time: Sep 30, 2016 at 12:00:11 AM

Latest Report: Sep 29, 2016 at 10:52 PM


Visibility: 10 mi

Pressure: 30.10 "Hg

Humidity: 97%

Dew Point: 53 °F

Location of Bowling GreenLocation

Past Weather in Bowling Green — Graph

°F

Bowling Green Temperature Yesterday

Maximum temperature yesterday: 63 °F (at 3:52 PM)
Minimum temperature yesterday: 48 °F (at 2:52 AM)
Average temperature yesterday: 55 °F

High & Low Weather Summary for the Past Weeks

 TemperatureHumidityPressure
High92 °F (Sep 15, 2:52 PM)100% (Sep 27, 8:52 AM)30.17 "Hg (Sep 27, 8:52 AM)
Low46 °F (Sep 27, 4:52 AM)28% (Sep 27, 1:52 PM)29.83 "Hg (Sep 28, 12:52 PM)
Average72 °F73%30.04 "Hg
* Reported Sep 14 10:52 PM — Sep 29 10:52 PM, Bowling Green, Weather by CustomWeather, © 2016

Note: Actual official high and low records may vary slightly from our data, if they occured in-between our weather recording intervals... More about our weather records

Advertising

Bowling Green Weather History for the Previous 24 Hours

Scroll right to see more
 ConditionsComfort  
Time TempWeatherWind HumidityBarometerVisibility
10:52 PM
Thu, Sep 29
54 °FPassing clouds.5 mph97%30.10 "Hg10 mi
9:52 PM55 °FOvercast.No wind96%30.11 "Hg10 mi
8:52 PM54 °FFog.No wind97%30.12 "Hg1 mi
7:59 PM56 °FFog.No wind93%30.11 "Hg1 mi
6:52 PM59 °FPartly cloudy.No wind87%30.11 "Hg10 mi
5:52 PM60 °FLight rain. Mostly cloudy.6 mph80%30.11 "Hg10 mi
4:52 PM62 °FBroken clouds.7 mph70%30.09 "Hg10 mi
3:52 PM63 °FPartly sunny.5 mph68%30.09 "Hg10 mi
2:52 PM61 °FMore clouds than sun.6 mph72%30.09 "Hg10 mi
1:52 PM61 °FMostly cloudy.8 mph72%30.09 "Hg10 mi
12:52 PM60 °FMostly cloudy.10 mph75%30.10 "Hg10 mi
11:52 AM58 °FOvercast.7 mph78%30.11 "Hg10 mi
10:59 AM57 °FOvercast.8 mph78%30.11 "Hg10 mi
9:52 AM56 °FOvercast.7 mph81%30.10 "Hg10 mi
8:52 AM54 °FPartly sunny.12 mph86%30.07 "Hg10 mi
7:52 AM51 °FSunny.5 mph89%30.07 "Hg10 mi
6:52 AM48 °FLight rain. Sunny.5 mph89%30.06 "Hg10 mi
5:52 AM48 °FSunny.6 mph89%30.05 "Hg10 mi
4:52 AM48 °FClear.5 mph89%30.04 "Hg10 mi
3:52 AM50 °FClear.6 mph83%30.03 "Hg10 mi
2:52 AM48 °FClear.6 mph86%30.03 "Hg10 mi
1:52 AM50 °FClear.3 mph83%30.04 "Hg10 mi
12:52 AM50 °FClear.6 mph80%30.04 "Hg10 mi
Weather by CustomWeather, © 2016

See weather overviewHow to use our weather pages